Location: Burbank
(38.7788°N, 114.0429°W)
Time: 15:00:11
(UTC+00:00)

Injun/Solrad 3 - Pass Details

Date: 14 May 2026
Orbit: 867 x 989 km, 66.8° (Epoch: 8 June)

Event Time Altitude Azimuth Distance (km) Brightness Sun altitude
Rises 08:51:18 0° 328° (NNW) 3,688 11.5 -29.7°
Reaches altitude 10° 08:53:53 10° 325° (NW) 2,745 10.7 -29.5°
Enters shadow 08:59:22 57° 283° (WNW) 1,149 8.2 -29.1°
Maximum altitude 09:00:14 63° 246° (WSW) 1,095 - -29.0°
Drops below altitude 10° 09:06:33 10° 167° (SSE) 2,729 - -28.5°
Sets 09:09:07 0° 164° (SSE) 3,666 - -28.3°
